When you browse on this site, cookies collect data to enhance your experience and personalize the content and advertising you see.
Visit our Privacy Policy to learn more. By continuing to use the site, you agree to this use of cookies and data.
  • In Romania
  • List of Countries
  • For 7 days
  • Water Temperature
  • Weather Map
  • Weather Widgets
  • user-avatar
    Login

    Hourly Weather Kweta

    Today, 25 May, Monday

    Time Temperature Precipitation Wind Pressure Humidity
    00:00 +24°C° 0 mm 1 mps 618 mmHg 15%
    01:00 +23°C° 0 mm 1 mps 617 mmHg 16%
    02:00 +23°C° 0 mm 1 mps 617 mmHg 16%
    03:00 +22°C° 0 mm 1 mps 617 mmHg 16%
    04:00 +21°C° 0 mm 1 mps 617 mmHg 16%
    05:00 +23°C° 0 mm 1 mps 618 mmHg 14%
    06:00 +25°C° 0 mm 1 mps 619 mmHg 12%
    07:00 +27°C° 0 mm 2 mps 620 mmHg 10%
    08:00 +28°C° 0 mm 2 mps 621 mmHg 9%
    09:00 +30°C° 0 mm 3 mps 621 mmHg 7%
    10:00 +32°C° 0 mm 4 mps 622 mmHg 6%
    11:00 +33°C° 0 mm 5 mps 622 mmHg 5%
    12:00 +33°C° 0 mm 7 mps 622 mmHg 4%
    13:00 +34°C° 0 mm 8 mps 622 mmHg 4%
    14:00 +34°C° 0 mm 8 mps 621 mmHg 4%
    15:00 +34°C° 0 mm 8 mps 620 mmHg 5%
    16:00 +33°C° 0 mm 8 mps 620 mmHg 5%
    17:00 +32°C° 0 mm 8 mps 620 mmHg 7%
    18:00 +30°C° 0 mm 7 mps 619 mmHg 8%
    19:00 +29°C° 0 mm 6 mps 619 mmHg 9%
    20:00 +28°C° 0 mm 5 mps 619 mmHg 9%
    21:00 +27°C° 0 mm 4 mps 619 mmHg 10%
    22:00 +26°C° 0 mm 4 mps 618 mmHg 10%
    23:00 +25°C° 0 mm 3 mps 618 mmHg 11%

    Tomorrow, 26 May, Tuesday

    Time Temperature Precipitation Wind Pressure Humidity
    00:00 +24°C° 0 mm 3 mps 617 mmHg 12%
    01:00 +23°C° 0 mm 2 mps 617 mmHg 13%
    02:00 +21°C° 0 mm 2 mps 616 mmHg 14%
    03:00 +21°C° 0 mm 2 mps 616 mmHg 15%
    04:00 +20°C° 0 mm 2 mps 616 mmHg 15%
    05:00 +22°C° 0 mm 3 mps 617 mmHg 15%
    06:00 +24°C° 0 mm 3 mps 618 mmHg 15%
    07:00 +26°C° 0 mm 4 mps 619 mmHg 15%
    08:00 +27°C° 0 mm 4 mps 619 mmHg 13%
    09:00 +29°C° 0 mm 5 mps 619 mmHg 11%
    10:00 +30°C° 0 mm 6 mps 620 mmHg 10%
    11:00 +32°C° 0 mm 7 mps 620 mmHg 9%
    12:00 +33°C° 0 mm 8 mps 620 mmHg 8%
    13:00 +33°C° 0 mm 9 mps 620 mmHg 8%
    14:00 +33°C° 0 mm 9 mps 619 mmHg 8%
    15:00 +33°C° 0 mm 9 mps 619 mmHg 7%
    16:00 +33°C° 0 mm 9 mps 618 mmHg 7%
    17:00 +32°C° 0 mm 8 mps 618 mmHg 8%
    18:00 +29°C° 0 mm 7 mps 618 mmHg 9%
    19:00 +28°C° 0 mm 5 mps 618 mmHg 10%
    20:00 +27°C° 0 mm 4 mps 617 mmHg 11%
    21:00 +26°C° 0 mm 4 mps 617 mmHg 13%
    22:00 +25°C° 0 mm 3 mps 617 mmHg 14%
    23:00 +24°C° 0 mm 3 mps 616 mmHg 15%

    Day after tomorrow, 27 May, Wednesday

    Time Temperature Precipitation Wind Pressure Humidity
    00:00 +24°C° 0 mm 2 mps 616 mmHg 16%
    01:00 +23°C° 0 mm 2 mps 615 mmHg 17%
    02:00 +21°C° 0 mm 2 mps 615 mmHg 17%
    03:00 +21°C° 0 mm 2 mps 614 mmHg 17%
    04:00 +20°C° 0 mm 2 mps 614 mmHg 17%
    05:00 +22°C° 0 mm 3 mps 615 mmHg 16%
    06:00 +24°C° 0 mm 3 mps 616 mmHg 15%
    07:00 +26°C° 0 mm 3 mps 617 mmHg 14%
    08:00 +27°C° 0 mm 4 mps 617 mmHg 13%
    09:00 +28°C° 0 mm 4 mps 617 mmHg 13%
    10:00 +29°C° 0 mm 4 mps 618 mmHg 12%
    11:00 +30°C° 0 mm 4 mps 618 mmHg 11%
    12:00 +32°C° 0 mm 4 mps 618 mmHg 10%
    13:00 +33°C° 0 mm 5 mps 618 mmHg 9%
    14:00 +33°C° 0 mm 5 mps 617 mmHg 8%
    15:00 +33°C° 0 mm 5 mps 616 mmHg 8%
    16:00 +33°C° 0 mm 5 mps 616 mmHg 8%
    17:00 +32°C° 0 mm 4 mps 615 mmHg 8%
    18:00 +29°C° 0 mm 3 mps 615 mmHg 9%
    19:00 +28°C° 0 mm 3 mps 615 mmHg 10%
    20:00 +27°C° 0 mm 2 mps 614 mmHg 11%
    21:00 +26°C° 0 mm 2 mps 614 mmHg 11%
    22:00 +26°C° 0 mm 2 mps 614 mmHg 12%
    23:00 +25°C° 0 mm 2 mps 614 mmHg 14%

    28 May, Thursday

    Time Temperature Precipitation Wind Pressure Humidity
    00:00 +24°C° 0 mm 3 mps 613 mmHg 15%
    01:00 +22°C° 0 mm 3 mps 612 mmHg 17%
    02:00 +21°C° 0 mm 3 mps 612 mmHg 19%
    03:00 +21°C° 0 mm 2 mps 612 mmHg 22%
    04:00 +20°C° 0 mm 2 mps 611 mmHg 24%
    05:00 +21°C° 0 mm 2 mps 612 mmHg 22%
    06:00 +24°C° 0 mm 3 mps 613 mmHg 20%
    07:00 +25°C° 0 mm 3 mps 614 mmHg 18%
    08:00 +26°C° 0 mm 3 mps 614 mmHg 17%
    09:00 +28°C° 0 mm 3 mps 615 mmHg 16%
    10:00 +29°C° 0 mm 4 mps 615 mmHg 15%
    11:00 +30°C° 0 mm 4 mps 615 mmHg 14%
    12:00 +32°C° 0 mm 4 mps 615 mmHg 12%
    13:00 +33°C° 0 mm 4 mps 614 mmHg 11%
    14:00 +33°C° 0 mm 4 mps 614 mmHg 11%
    15:00 +33°C° 0 mm 4 mps 614 mmHg 10%
    16:00 +33°C° 0 mm 4 mps 613 mmHg 10%
    17:00 +31°C° 0 mm 3 mps 613 mmHg 11%
    18:00 +30°C° 0 mm 3 mps 613 mmHg 11%
    19:00 +29°C° 0 mm 3 mps 613 mmHg 12%
    20:00 +28°C° 0 mm 3 mps 613 mmHg 13%
    21:00 +27°C° 0 mm 2 mps 613 mmHg 14%
    22:00 +26°C° 0 mm 2 mps 613 mmHg 15%
    23:00 +25°C° 0 mm 2 mps 612 mmHg 16%

    29 May, Friday

    Time Temperature Precipitation Wind Pressure Humidity
    00:00 +25°C° 0 mm 1 mps 612 mmHg 18%
    01:00 +24°C° 0 mm 1 mps 612 mmHg 19%
    02:00 +23°C° 0 mm 1 mps 611 mmHg 20%
    03:00 +23°C° 0 mm 1 mps 611 mmHg 22%
    04:00 +22°C° 0 mm 1 mps 611 mmHg 23%
    05:00 +24°C° 0 mm 1 mps 612 mmHg 21%
    06:00 +25°C° 0 mm 1 mps 613 mmHg 19%
    07:00 +27°C° 0 mm 1 mps 614 mmHg 17%
    08:00 +28°C° 0 mm 2 mps 615 mmHg 15%
    09:00 +30°C° 0 mm 2 mps 615 mmHg 14%
    10:00 +31°C° 0 mm 2 mps 616 mmHg 13%
    11:00 +32°C° 0 mm 2 mps 616 mmHg 12%
    12:00 +33°C° 0 mm 3 mps 616 mmHg 11%
    13:00 +34°C° 0 mm 3 mps 616 mmHg 10%
    14:00 +34°C° 0 mm 3 mps 616 mmHg 10%
    15:00 +34°C° 0 mm 3 mps 616 mmHg 10%
    16:00 +33°C° 0 mm 3 mps 616 mmHg 11%
    17:00 +31°C° 0 mm 3 mps 615 mmHg 13%
    18:00 +30°C° 0 mm 3 mps 615 mmHg 15%
    19:00 +28°C° 0 mm 3 mps 615 mmHg 18%
    20:00 +28°C° 0 mm 3 mps 615 mmHg 20%
    21:00 +27°C° 0 mm 3 mps 615 mmHg 22%
    22:00 +26°C° 0 mm 2 mps 615 mmHg 24%
    23:00 +26°C° 0 mm 2 mps 615 mmHg 25%

    30 May, Saturday

    Time Temperature Precipitation Wind Pressure Humidity
    00:00 +25°C° 0 mm 2 mps 614 mmHg 27%
    01:00 +24°C° 0 mm 1 mps 614 mmHg 28%
    02:00 +24°C° 0 mm 1 mps 614 mmHg 28%
    03:00 +24°C° 0 mm 2 mps 614 mmHg 28%
    04:00 +23°C° 0 mm 2 mps 614 mmHg 28%
    05:00 +25°C° 0 mm 2 mps 615 mmHg 27%
    06:00 +26°C° 0 mm 3 mps 616 mmHg 25%
    07:00 +27°C° 0 mm 3 mps 617 mmHg 24%
    08:00 +28°C° 0 mm 3 mps 617 mmHg 23%
    09:00 +29°C° 0 mm 3 mps 617 mmHg 22%
    10:00 +30°C° 0 mm 3 mps 618 mmHg 21%
    11:00 +29°C° 0.2 mm 4 mps 617 mmHg 25%
    12:00 +28°C° 0.2 mm 5 mps 616 mmHg 30%
    13:00 +26°C° 0.2 mm 5 mps 616 mmHg 35%
    14:00 +26°C° 0.8 mm 5 mps 616 mmHg 36%
    15:00 +25°C° 0.8 mm 5 mps 616 mmHg 37%
    16:00 +23°C° 0.8 mm 4 mps 615 mmHg 38%
    17:00 +25°C° 0 mm 4 mps 616 mmHg 36%
    18:00 +25°C° 0 mm 3 mps 616 mmHg 35%
    19:00 +25°C° 0 mm 3 mps 616 mmHg 34%
    20:00 +25°C° 0 mm 2 mps 616 mmHg 34%
    21:00 +24°C° 0 mm 2 mps 616 mmHg 35%
    22:00 +24°C° 0 mm 2 mps 616 mmHg 35%
    23:00 +23°C° 0 mm 1 mps 616 mmHg 37%
    Show more